Location: Buena Vista
(37.7110°N, 119.7938°W)
Time: 22:52:59
(UTC+00:00)

Envisat - Pass Details

Date: 23 August 2024
Orbit: 762 x 764 km, 98.3° (Epoch: 08 September)

Event Time Altitude Azimuth Distance (km) Brightness Sun altitude
Rises 10:20:32 0° 25° (NNE) 3,231 7.3 -31.3°
Reaches altitude 10° 10:23:08 10° 36° (NE) 2,301 6.4 -30.9°
Maximum altitude 10:27:30 29° 96° (E) 1,377 4.5 -30.4°
Enters shadow 10:28:23 27° 114° (ESE) 1,425 4.5 -30.3°
